Regional Weather Roundup
Issued by NWS Little Rock, AR

Home | Current Version | Previous Version | Text Only | Print | Product List | Glossary Off
Versions: 1 2 3 4 5 6 7 8 9 10 11 12 13 14 15 16 17 18 19 20 21 22 23 24 25 26 27

000
ASUS44 KLZK 180205
RWRLZK

WEATHER ROUNDUP FOR ARKANSAS
NATIONAL WEATHER SERVICE LITTLE ROCK AR
900 PM CDT THU APR 17 2014

NOTE: "FAIR" INDICATES FEW OR NO CLOUDS BELOW 12,000 FEET WITH NO
SIGNIFICANT WEATHER AND/OR OBSTRUCTIONS TO VISIBILITY.

ARZ001-003-010-029-180300-
NORTHWEST ARKANSAS

CITY           SKY/WX    TMP DP  RH WIND       PRES   REMARKS
FAYETTEVILLE   CLOUDY    57  41  55 N7        30.23R
FORT SMITH     CLOUDY    63  46  54 CALM      30.19R
HARRISON       MOCLDY    57  34  41 NE5       30.20R
BENTONVILLE    MOCLDY    57  39  51 NE7       30.23R
ROGERS         CLOUDY    55  41  59 N5        30.24R
SILOAM SPGS    CLOUDY    55  39  54 NE6       30.23S
HIGHFILL       CLOUDY    55  42  61 N6        30.22R
SPRINGDALE     MOCLDY    57  41  54 N12       30.24R
$$

ARZ004-005-016-180300-
NORTH CENTRAL ARKANSAS

CITY           SKY/WX    TMP DP  RH WIND       PRES   REMARKS
BATESVILLE     MOCLDY    61  41  48 E7        30.21R
FLIPPIN        PTCLDY    61  32  33 CALM      30.20R
MTN HOME       PTCLDY    60  33  36 E6        30.19R
$$

ARZ040-041-180300-
WEST CENTRAL ARKANSAS

CITY           SKY/WX    TMP DP  RH WIND       PRES   REMARKS
MENA           MOCLDY    59  45  58 CALM      30.20R
MOUNT IDA      CLOUDY    58  44  60 CALM      30.17R
$$

ARZ009-017-025-026-028-180300-
NORTHEAST ARKANSAS

CITY           SKY/WX    TMP DP  RH WIND       PRES   REMARKS
CORNING        FAIR      57  50  77 SE5       30.24R
JONESBORO      MOCLDY    54  44  69 CALM      30.23R
NEWPORT        CLOUDY    62  47  58 CALM      30.24R
WALNUT RIDGE   MOCLDY    61  46  59 CALM      30.24R
BLYTHEVILLE    MOCLDY    58  47  66 NE6       30.23R
$$

ARZ022-023-033-042-044-180300-
CENTRAL ARKANSAS

CITY           SKY/WX    TMP DP  RH WIND       PRES   REMARKS
LITTLE ROCK    CLOUDY    62  46  55 SE6       30.21R
N LITTLE ROCK  MOCLDY    63  48  57 SE6       30.21R
JACKSONVILLE   CLOUDY    63  44  49 E5        30.20S
SEARCY         MOCLDY    61  47  59 SE5       30.23R
HOT SPRINGS    PTCLDY    63  40  42 E5        30.21R
RUSSELLVILLE   CLOUDY    63  40  42 CALM      30.19R
CLINTON        CLOUDY    57  46  67 CALM      30.22R
$$

ARZ036-180300-
EAST ARKANSAS

CITY           SKY/WX    TMP DP  RH WIND       PRES   REMARKS
WEST MEMPHIS   CLOUDY    58  49  72 CALM      30.22R
$$

ARZ050-053-066-070-073-180300-
SOUTHWEST ARKANSAS

CITY           SKY/WX    TMP DP  RH WIND       PRES   REMARKS
ARKADELPHIA    FAIR      58  54  86 CALM      30.21R
CAMDEN         PTCLDY    55  46  71 MISG      30.19S
TEXARKANA      MOCLDY    58  46  64 CALM      30.20R
EL DORADO      PTCLDY    54  49  83 CALM      30.19R
DE QUEEN       MOCLDY    58  51  78 CALM      30.18R
$$

ARZ056-057-069-180300-
SOUTHEAST ARKANSAS

CITY           SKY/WX    TMP DP  RH WIND       PRES   REMARKS
PINE BLUFF     MOCLDY    59  50  72 CALM      30.21R
STUTTGART      CLOUDY    63  48  59 CALM      30.22S
MONTICELLO     CLOUDY    58  50  75 CALM      30.20R

$$





USA.gov is the U.S. government's official web portal to all federal, state and local government web resources and services.